When you browse on this site, cookies collect data to enhance your experience and personalize the content and advertising you see.
Visit our Privacy Policy to learn more. By continuing to use the site, you agree to this use of cookies and data.
  • En España
  • Lista de países
  • Para 7 días
  • Temperatura del agua
  • Mapa Satelital
  • El tiempo en el mapa
  • Informadores
  • user-avatar
    Iniciar sesión

    Tiempo cada hora Krotoshyn

    Hoy, 20 Marzo, Miércoles

    Tiempo Temperatura Precipitaciones Viento Presión Humedad
    00:00 +4°C° 0.2 mm 3 mps 740 mmHg 71%
    01:00 +3°C° 0.2 mm 3 mps 741 mmHg 72%
    02:00 +3°C° 0.2 mm 3 mps 741 mmHg 73%
    03:00 +3°C° 0.1 mm 3 mps 741 mmHg 75%
    04:00 +2°C° 0.1 mm 3 mps 741 mmHg 76%
    05:00 +2°C° 0.1 mm 3 mps 741 mmHg 77%
    06:00 +2°C° 0.1 mm 3 mps 742 mmHg 77%
    07:00 +2°C° 0.1 mm 3 mps 742 mmHg 76%
    08:00 +2°C° 0.1 mm 3 mps 742 mmHg 76%
    09:00 +3°C° 0 mm 3 mps 743 mmHg 70%
    10:00 +5°C° 0 mm 2 mps 743 mmHg 63%
    11:00 +6°C° 0 mm 2 mps 743 mmHg 57%
    12:00 +7°C° 0 mm 2 mps 743 mmHg 53%
    13:00 +7°C° 0 mm 2 mps 743 mmHg 48%
    14:00 +8°C° 0 mm 2 mps 744 mmHg 44%
    15:00 +8°C° 0 mm 2 mps 744 mmHg 44%
    16:00 +8°C° 0 mm 2 mps 743 mmHg 45%
    17:00 +8°C° 0 mm 2 mps 743 mmHg 45%
    18:00 +7°C° 0 mm 2 mps 744 mmHg 49%
    19:00 +6°C° 0 mm 2 mps 744 mmHg 53%
    20:00 +6°C° 0 mm 1 mps 744 mmHg 57%
    21:00 +5°C° 0 mm 1 mps 744 mmHg 59%
    22:00 +5°C° 0 mm 1 mps 744 mmHg 61%
    23:00 +4°C° 0 mm 1 mps 745 mmHg 62%

    Mañana, 21 Marzo, Jueves

    Tiempo Temperatura Precipitaciones Viento Presión Humedad
    00:00 +4°C° 0 mm 1 mps 745 mmHg 63%
    01:00 +3°C° 0 mm 1 mps 745 mmHg 64%
    02:00 +3°C° 0 mm 1 mps 745 mmHg 66%
    03:00 +2°C° 0 mm 2 mps 745 mmHg 68%
    04:00 +1°C° 0 mm 2 mps 745 mmHg 70%
    05:00 +1°C° 0 mm 2 mps 745 mmHg 72%
    06:00 +1°C° 0 mm 2 mps 745 mmHg 70%
    07:00 +1°C° 0 mm 3 mps 745 mmHg 69%
    08:00 +1°C° 0 mm 3 mps 745 mmHg 67%
    09:00 +3°C° 0 mm 3 mps 745 mmHg 63%
    10:00 +5°C° 0 mm 4 mps 745 mmHg 58%
    11:00 +6°C° 0 mm 4 mps 745 mmHg 53%
    12:00 +7°C° 0 mm 4 mps 745 mmHg 53%
    13:00 +8°C° 0 mm 4 mps 745 mmHg 52%
    14:00 +10°C° 0 mm 4 mps 744 mmHg 52%
    15:00 +10°C° 0 mm 4 mps 744 mmHg 55%
    16:00 +10°C° 0 mm 4 mps 744 mmHg 59%
    17:00 +10°C° 0 mm 4 mps 744 mmHg 63%
    18:00 +9°C° 0 mm 3 mps 744 mmHg 69%
    19:00 +7°C° 0 mm 2 mps 744 mmHg 75%
    20:00 +6°C° 0 mm 2 mps 744 mmHg 81%
    21:00 +6°C° 0 mm 2 mps 744 mmHg 82%
    22:00 +7°C° 0 mm 2 mps 744 mmHg 83%
    23:00 +7°C° 0 mm 2 mps 744 mmHg 83%

    Pasado mañana, 22 Marzo, Viernes

    Tiempo Temperatura Precipitaciones Viento Presión Humedad
    00:00 +6°C° 0 mm 2 mps 744 mmHg 85%
    01:00 +6°C° 0 mm 2 mps 744 mmHg 87%
    02:00 +6°C° 0 mm 2 mps 744 mmHg 89%
    03:00 +5°C° 0 mm 2 mps 744 mmHg 90%
    04:00 +5°C° 0 mm 2 mps 744 mmHg 91%
    05:00 +4°C° 0 mm 2 mps 744 mmHg 92%
    06:00 +5°C° 0 mm 2 mps 744 mmHg 91%
    07:00 +4°C° 0 mm 3 mps 744 mmHg 89%
    08:00 +4°C° 0 mm 3 mps 744 mmHg 88%
    09:00 +7°C° 0 mm 3 mps 744 mmHg 80%
    10:00 +9°C° 0 mm 3 mps 744 mmHg 73%
    11:00 +10°C° 0 mm 3 mps 744 mmHg 66%
    12:00 +11°C° 0 mm 3 mps 743 mmHg 63%
    13:00 +12°C° 0 mm 3 mps 743 mmHg 60%
    14:00 +13°C° 0 mm 3 mps 743 mmHg 57%
    15:00 +13°C° 0 mm 3 mps 742 mmHg 58%
    16:00 +13°C° 0 mm 3 mps 742 mmHg 59%
    17:00 +13°C° 0 mm 3 mps 742 mmHg 60%
    18:00 +13°C° 0 mm 2 mps 742 mmHg 65%
    19:00 +12°C° 0 mm 2 mps 742 mmHg 71%
    20:00 +11°C° 0 mm 1 mps 742 mmHg 76%
    21:00 +10°C° 0 mm 1 mps 742 mmHg 78%
    22:00 +10°C° 0 mm 1 mps 742 mmHg 79%
    23:00 +10°C° 0 mm 1 mps 742 mmHg 81%

    23 Marzo, Sábado

    Tiempo Temperatura Precipitaciones Viento Presión Humedad
    00:00 +9°C° 0 mm 1 mps 742 mmHg 83%
    01:00 +9°C° 0 mm 1 mps 742 mmHg 85%
    02:00 +7°C° 0 mm 2 mps 741 mmHg 87%
    03:00 +8°C° 0 mm 1 mps 741 mmHg 87%
    04:00 +8°C° 0 mm 1 mps 741 mmHg 87%
    05:00 +7°C° 0 mm 1 mps 741 mmHg 88%
    06:00 +8°C° 0 mm 1 mps 741 mmHg 85%
    07:00 +9°C° 0 mm 1 mps 741 mmHg 83%
    08:00 +9°C° 0 mm 1 mps 741 mmHg 80%
    09:00 +10°C° 0 mm 2 mps 741 mmHg 73%
    10:00 +13°C° 0 mm 2 mps 740 mmHg 66%
    11:00 +14°C° 0 mm 2 mps 740 mmHg 59%
    12:00 +14°C° 0 mm 3 mps 740 mmHg 55%
    13:00 +16°C° 0 mm 3 mps 740 mmHg 50%
    14:00 +17°C° 0 mm 3 mps 739 mmHg 46%
    15:00 +17°C° 0 mm 3 mps 739 mmHg 46%
    16:00 +17°C° 0 mm 3 mps 738 mmHg 46%
    17:00 +17°C° 0 mm 3 mps 738 mmHg 47%
    18:00 +14°C° 0 mm 3 mps 738 mmHg 52%
    19:00 +14°C° 0 mm 2 mps 738 mmHg 57%
    20:00 +12°C° 0 mm 2 mps 738 mmHg 62%
    21:00 +12°C° 0 mm 2 mps 738 mmHg 65%
    22:00 +10°C° 0 mm 3 mps 738 mmHg 67%
    23:00 +9°C° 0 mm 3 mps 738 mmHg 70%

    24 Marzo, Domingo

    Tiempo Temperatura Precipitaciones Viento Presión Humedad
    00:00 +9°C° 0 mm 3 mps 738 mmHg 71%
    01:00 +8°C° 0 mm 3 mps 738 mmHg 72%
    02:00 +8°C° 0 mm 3 mps 738 mmHg 73%
    03:00 +8°C° 0 mm 3 mps 738 mmHg 75%
    04:00 +7°C° 0 mm 2 mps 738 mmHg 78%
    05:00 +7°C° 0 mm 2 mps 737 mmHg 81%
    06:00 +7°C° 0.1 mm 2 mps 738 mmHg 84%
    07:00 +7°C° 0.1 mm 2 mps 738 mmHg 87%
    08:00 +8°C° 0.1 mm 2 mps 738 mmHg 91%
    09:00 +8°C° 0.2 mm 2 mps 738 mmHg 87%
    10:00 +8°C° 0.2 mm 2 mps 738 mmHg 84%
    11:00 +10°C° 0.2 mm 1 mps 738 mmHg 80%
    12:00 +10°C° 0 mm 2 mps 738 mmHg 73%
    13:00 +12°C° 0 mm 2 mps 738 mmHg 66%
    14:00 +12°C° 0 mm 3 mps 737 mmHg 58%
    15:00 +11°C° 0 mm 3 mps 737 mmHg 58%
    16:00 +11°C° 0 mm 3 mps 737 mmHg 57%
    17:00 +10°C° 0 mm 3 mps 736 mmHg 56%
    18:00 +9°C° 0 mm 3 mps 736 mmHg 59%
    19:00 +8°C° 0 mm 2 mps 736 mmHg 62%
    20:00 +7°C° 0 mm 2 mps 736 mmHg 65%
    21:00 +7°C° 0 mm 2 mps 736 mmHg 66%
    22:00 +6°C° 0 mm 2 mps 736 mmHg 68%
    23:00 +5°C° 0 mm 2 mps 735 mmHg 70%

    25 Marzo, Lunes

    Tiempo Temperatura Precipitaciones Viento Presión Humedad
    00:00 +5°C° 0 mm 2 mps 735 mmHg 71%
    01:00 +4°C° 0 mm 2 mps 735 mmHg 72%
    02:00 +4°C° 0 mm 2 mps 734 mmHg 74%
    03:00 +3°C° 0 mm 2 mps 734 mmHg 75%
    04:00 +3°C° 0 mm 2 mps 733 mmHg 76%
    05:00 +2°C° 0 mm 2 mps 733 mmHg 77%
    06:00 +2°C° 0 mm 3 mps 732 mmHg 74%
    07:00 +1°C° 0 mm 4 mps 732 mmHg 71%
    08:00 +3°C° 0 mm 4 mps 732 mmHg 68%
    09:00 +3°C° 0 mm 5 mps 731 mmHg 62%
    10:00 +5°C° 0 mm 6 mps 731 mmHg 55%
    11:00 +6°C° 0 mm 7 mps 730 mmHg 48%
    12:00 +7°C° 0 mm 8 mps 730 mmHg 47%
    13:00 +7°C° 0 mm 9 mps 729 mmHg 45%
    14:00 +8°C° 0 mm 9 mps 728 mmHg 44%
    15:00 +7°C° 0 mm 9 mps 728 mmHg 46%
    16:00 +7°C° 0 mm 9 mps 727 mmHg 48%
    17:00 +6°C° 0 mm 9 mps 727 mmHg 49%
    18:00 +5°C° 0.1 mm 7 mps 727 mmHg 57%
    19:00 +4°C° 0.1 mm 6 mps 727 mmHg 64%
    20:00 +2°C° 0.1 mm 5 mps 727 mmHg 71%
    21:00 +3°C° 0.1 mm 4 mps 727 mmHg 73%
    22:00 +1°C° 0.1 mm 4 mps 727 mmHg 75%
    23:00 0°C° 0.1 mm 4 mps 727 mmHg 76%
    Mostrar más